This is the latest recevied weather packets stored in our database for station/object KC5AV. If no packets are shown the sender has not sent any weather packets the latest 1 day(s).
| Time | Temp. | Humidity | Pressure | Rain* | Wind** | Luminosity | Snow |
|---|---|---|---|---|---|---|---|
| 1778030040 | 26.11° C | 79% | 1007.6 hPa | 0 mm | 0 m/s | 0 W/m² | - |
| 1778029737 | 26.11° C | 78% | 1007.5 hPa | 0 mm | 1.34 m/s, 196° | 1 W/m² | - |
| 1778029436 | 26.11° C | 78% | 1007.1 hPa | 0 mm | 0 m/s | 2 W/m² | - |
| 1778029132 | 26.11° C | 78% | 1007 hPa | 0 mm | 0 m/s | 3 W/m² | - |
| 1778028829 | 26.67° C | 77% | 1006.8 hPa | 0 mm | 0.89 m/s, 155° | 6 W/m² | - |
| 1778028525 | 26.67° C | 77% | 1006.9 hPa | 0 mm | 0 m/s | 10 W/m² | - |
| 1778028223 | 26.67° C | 76% | 1006.8 hPa | 0 mm | 0 m/s | 14 W/m² | - |
| 1778027919 | 26.67° C | 76% | 1006.3 hPa | 0 mm | 0 m/s | 19 W/m² | - |
| 1778027615 | 27.22° C | 75% | 1006.3 hPa | 0 mm | 0 m/s | 20 W/m² | - |
| 1778027312 | 27.22° C | 74% | 1006.3 hPa | 0 mm | 0 m/s | 28 W/m² | - |
| 1778027008 | 27.22° C | 74% | 1006.4 hPa | 0 mm | 0.45 m/s, 178° | 32 W/m² | - |
| 1778026704 | 27.78° C | 73% | 1006.5 hPa | 0 mm | 0 m/s | 39 W/m² | - |
| 1778026401 | 27.78° C | 72% | 1006.8 hPa | 0 mm | 0.45 m/s, 329° | 41 W/m² | - |
| 1778026098 | 27.78° C | 71% | 1006.5 hPa | 0 mm | 0.45 m/s, 352° | 46 W/m² | - |
| 1778025796 | 28.33° C | 71% | 1006.4 hPa | 0 mm | 0 m/s | 53 W/m² | - |
| 1778025492 | 28.33° C | 70% | 1006.6 hPa | 0 mm | 0.89 m/s, 177° | 58 W/m² | - |
| 1778025190 | 28.33° C | 70% | 1006.8 hPa | 0 mm | 0.89 m/s, 298° | 75 W/m² | - |
| 1778024887 | 28.89° C | 69% | 1006.8 hPa | 0 mm | 0 m/s | 85 W/m² | - |
| 1778024584 | 28.33° C | 70% | 1006.5 hPa | 0 mm | 0 m/s | 102 W/m² | - |
| 1778024281 | 28.89° C | 69% | 1006.5 hPa | 0 mm | 0.45 m/s, 332° | 98 W/m² | - |
| 1778023979 | 28.89° C | 69% | 1006.4 hPa | 0 mm | 0.45 m/s, 240° | 117 W/m² | - |
| 1778023676 | 28.89° C | 68% | 1006.4 hPa | 0 mm | 0 m/s | 69 W/m² | - |
| 1778023373 | 29.44° C | 68% | 1006.6 hPa | 0 mm | 0 m/s | 109 W/m² | - |
| 1778023069 | 29.44° C | 68% | 1006.2 hPa | 0 mm | 0.89 m/s, 116° | 137 W/m² | - |
| 1778022769 | 29.44° C | 67% | 1006.3 hPa | 0 mm | 0 m/s | 151 W/m² | - |
* Rain latest hour (hover to see other rain measurements)
** Current wind speed in m/s (hover to see current wind gust speed)